This demonstration page uses our WeatherBlox Daily Observations layout. Learn more.

Hourly Observations for December 12, 2016

Temp ( °F °C ) Dew Point ( °F °C ) Humidity (%) Winds ( mph kmh ) Pressure ( in mb ) Visibility ( mi km ) Precip ( " mm )
12:54 am 00:54 Clear 13 -10.6 8 -13.3 81 81 Calm 30.18 1022 10 16.0934 0 0
1:54 am 01:54 Clear 10 -12.2 5 -15 80 80 Calm 30.19 1023 10 16.0934 0 0
2:54 am 02:54 Clear 12 -11.1 8 -13.3 84 84 WSW 8 13 30.21 1023 10 16.0934 0 0
3:54 am 03:54 Clear 11 -11.7 7 -13.9 84 84 Calm 30.18 1022 10 16.0934 0 0
4:54 am 04:54 Clear 10 -12.2 6 -14.4 84 84 Calm 30.16 1021 10 16.0934 0 0
5:54 am 05:54 Clear 11 -11.7 7 -13.9 84 84 S 3 6 30.15 1021 10 16.0934 0 0
6:54 am 06:54 Clear 10 -12.2 6 -14.4 84 84 S 5 7 30.15 1021 10 16.0934 0 0
7:54 am 07:54 Sunny 12 -11.1 8 -13.3 84 84 SSE 6 9 30.14 1021 10 16.0934 0 0
8:54 am 08:54 Sunny 16 -8.9 12 -11.1 84 84 S 8 13 30.14 1021 10 16.0934 0 0
9:54 am 09:54 Mostly Cloudy 20 -6.7 15 -9.4 81 81 S 10 17 30.14 1021 10 16.0934 0 0
10:54 am 10:54 Cloudy 26 -3.3 17 -8.3 69 69 S 14 22 30.12 1020 10 16.0934 0 0
11:54 am 11:54 Mostly Cloudy 30 -1.1 17 -8.3 58 58 S 12 19 30.09 1019 10 16.0934 0 0
12:54 pm 12:54 Mostly Sunny 34 1.1 19 -7.2 54 54 SSW 13 20 30.04 1017 10 16.0934 0 0
1:54 pm 13:54 Cloudy 38 3.3 20 -6.7 48 48 SSW 13 20 30.01 1016 10 16.0934 0 0
2:54 pm 14:54 Mostly Sunny 42 5.6 20 -6.7 41 41 S 9 15 29.98 1015 10 16.0934 0 0
3:54 pm 15:54 Sunny 42 5.6 19 -7.2 40 40 SW 14 22 29.98 1015 10 16.0934 0 0
4:54 pm 16:54 Sunny 39 3.9 18 -7.8 43 43 SSW 15 24 30 1016 10 16.0934 0 0
5:54 pm 17:54 Clear 32 0 17 -8.3 54 54 SSE 7 11 30.01 1016 10 16.0934 0 0
6:54 pm 18:54 Clear 33 0.6 18 -7.8 54 54 NW 10 17 30.06 1018 10 16.0934 0 0
7:15 pm 19:15 Clear 30 -1.1 21 -6.1 69 69 N 20 31 30.12 1020 10 16.0934 0 0
7:54 pm 19:54 Clear 24 -4.4 16 -8.9 71 71 N 25 41 30.14 1021 10 16.0934 0 0
8:54 pm 20:54 Clear 18 -7.8 9 -12.8 68 68 N 18 30 30.2 1023 10 16.0934 0 0
9:54 pm 21:54 Clear 16 -8.9 7 -13.9 67 67 N 13 20 30.25 1024 10 16.0934 0 0
10:54 pm 22:54 Clear 14 -10 5 -15 67 67 N 20 31 30.23 1024 10 16.0934 0 0
11:54 pm 23:54 Clear 12 -11.1 4 -15.6 70 70 N 16 26 30.27 1025 10 16.0934 0 0

Powered by AerisWeather